Weather History for KTUL - January, 2014

Change the Weather History Date:

Friday, January 3, 2014

  Actual Average Record
Temperature  
Mean Temperature 31 °F 37 °F  
Max Temperature 46 °F 47 °F 78 °F (2009)
Min Temperature 15 °F 28 °F -2 °F (1919)
Degree Days  
Heating Degree Days 34 28  
Month to date heating degree days 107 84  
Since 1 July heating degree days 1721 1512  
Moisture  
Dew Point 15 °F    
Average Humidity 53    
Maximum Humidity 74    
Minimum Humidity 31    
Precipitation  
Precipitation 0.00 in 0.05 in 1.12 in (1971)
Month to date precipitation 0.01 0.17  
Year to date precipitation 0.01 0.17  
Sea Level Pressure  
Sea Level Pressure 30.21 in    
Wind  
Wind Speed 16 mph (SSE)    
Max Wind Speed 30 mph    
Max Gust Speed 39 mph    
Visibility 10 miles    
Events      
T = Trace of Precipitation, MM = Missing Value Source: NWS Daily Summary

Daily Weather History Graph

Daily Weather History Graph

Search for Another Location

Airport or City:

Trip Planner

Search our weather history database for the weather conditions in past years. The results will help you decide how hot, cold, wet, or windy it might be!

Date:

Astronomy

Jan. 03, 2014 Rise Set
Actual Time 7:35 AM CST 5:21 PM CST
Civil Twilight 7:06 AM CST 5:49 PM CST
Nautical Twilight 6:34 AM CST 6:21 PM CST
Astronomical Twilight 6:03 AM CST 6:53 PM CST
Moon 9:06 AM CST (1/3) 8:25 PM CST (1/3)
Length of Visible Light 10h 43m
Length of Day
9h 46m
Waxing Crescent, 8% of the Moon is Illuminated
Jan 3
Waxing Crescent
Jan 7
First Quarter
Jan 15
Full
Jan 23
Last Quarter
Jan 30
New

Hourly Weather History & Observations

Time (CST) Temp. Windchill Dew Point Humidity Pressure Visibility Wind Dir Wind Speed Gust Speed Precip Events Conditions
12:53 AM 17.1 °F 8.7 °F 9.0 °F 71% 30.50 in 10.0 mi ESE 5.8 mph - N/A   Clear
1:53 AM 17.1 °F 6.6 °F 9.0 °F 71% 30.48 in 10.0 mi ESE 8.1 mph - N/A   Clear
2:53 AM 17.1 °F 7.6 °F 9.0 °F 71% 30.49 in 10.0 mi ESE 6.9 mph - N/A   Clear
3:53 AM 16.0 °F 7.4 °F 9.0 °F 74% 30.47 in 10.0 mi ESE 5.8 mph - N/A   Clear
4:53 AM 17.1 °F 5.8 °F 10.0 °F 74% 30.44 in 10.0 mi SE 9.2 mph - N/A   Clear
5:53 AM 19.0 °F 8.2 °F 10.0 °F 68% 30.42 in 10.0 mi SSE 9.2 mph - N/A   Clear
6:53 AM 21.0 °F 9.3 °F 9.0 °F 60% 30.41 in 10.0 mi South 11.5 mph - N/A   Partly Cloudy
7:53 AM 21.0 °F 9.9 °F 10.0 °F 63% 30.38 in 10.0 mi SSE 10.4 mph - N/A   Partly Cloudy
8:53 AM 24.1 °F 12.5 °F 10.9 °F 57% 30.38 in 10.0 mi South 12.7 mph - N/A   Partly Cloudy
9:53 AM 28.0 °F 17.0 °F 12.9 °F 53% 30.36 in 10.0 mi South 13.8 mph - N/A   Partly Cloudy
10:53 AM 33.1 °F 23.4 °F 17.1 °F 52% 30.33 in 10.0 mi SSE 13.8 mph - N/A   Partly Cloudy
11:53 AM 37.9 °F 27.6 °F 19.0 °F 47% 30.27 in 10.0 mi South 20.7 mph - N/A   Partly Cloudy
12:53 PM 42.1 °F 33.6 °F 19.0 °F 40% 30.19 in 10.0 mi South 18.4 mph - N/A   Partly Cloudy
1:53 PM 44.1 °F 35.2 °F 19.0 °F 37% 30.14 in 10.0 mi South 23.0 mph 34.5 mph N/A   Partly Cloudy
2:53 PM 45.0 °F 36.2 °F 18.0 °F 34% 30.09 in 10.0 mi South 24.2 mph 34.5 mph N/A   Partly Cloudy
3:53 PM 46.0 °F 37.6 °F 17.1 °F 31% 30.05 in 10.0 mi South 24.2 mph 31.1 mph N/A   Scattered Clouds
4:53 PM 44.1 °F 35.2 °F 17.1 °F 34% 30.01 in 10.0 mi South 23.0 mph 38.0 mph N/A   Scattered Clouds
5:53 PM 42.1 °F 33.1 °F 17.1 °F 37% 30.00 in 10.0 mi South 20.7 mph 26.5 mph N/A   Scattered Clouds
6:53 PM 41.0 °F 31.9 °F 18.0 °F 40% 30.00 in 10.0 mi South 19.6 mph 27.6 mph N/A   Scattered Clouds
7:53 PM 39.9 °F 30.0 °F 19.0 °F 43% 29.97 in 10.0 mi South 21.9 mph 31.1 mph N/A   Scattered Clouds
8:53 PM 37.9 °F 27.9 °F 19.9 °F 48% 29.96 in 10.0 mi South 19.6 mph - N/A   Scattered Clouds
9:53 PM 37.9 °F 27.6 °F 19.9 °F 48% 29.96 in 10.0 mi South 20.7 mph - N/A   Scattered Clouds
10:53 PM 37.9 °F 28.9 °F 19.9 °F 48% 29.96 in 10.0 mi South 16.1 mph - N/A   Partly Cloudy
11:53 PM 39.0 °F 28.5 °F 21.0 °F 49% 29.92 in 10.0 mi South 23.0 mph 32.2 mph N/A   Clear